Location: Gleizolles
(44.4833°N, 6.7667°E)
Time: 17:27:13
(UTC+00:00)

Transit 2A - Pass Details

Date: 25 June 2024
Orbit: 591 x 960 km, 66.7° (Epoch: 16 July)

Event Time Altitude Azimuth Distance (km) Brightness Sun altitude
Rises 00:34:37 0° 312° (NW) 3,590 9.8 -20.8°
Reaches altitude 10° 00:38:10 10° 292° (WNW) 2,676 8.9 -20.6°
Maximum altitude 00:41:45 16° 257° (WSW) 2,286 8.2 -20.5°
Enters shadow 00:42:11 16° 252° (WSW) 2,293 8.1 -20.5°
